| time (UTC) | temp F | wind direction | speed MPH | gust MPH | rain 1hr in | rain 24hr in | rain mn in | humidity % | barometer mb |
| 20260504205727 | 67 | 243 | 3.0 | 5.0 | 0.00 | 0.00 | 0.00 | 37 | 1004.8 |
| 20260504205225 | 67 | 220 | 7.0 | 9.0 | 0.00 | 0.00 | 0.00 | 35 | 1004.9 |
| 20260504204723 | 66 | 221 | 3.0 | 5.0 | 0.00 | 0.00 | 0.00 | 38 | 1004.6 |
| 20260504204222 | 67 | 212 | 4.0 | 10.0 | 0.00 | 0.00 | 0.00 | 38 | 1005.1 |
| 20260504203721 | 67 | 242 | 3.0 | 7.0 | 0.00 | 0.00 | 0.00 | 37 | 1004.9 |
| 20260504203218 | 67 | 179 | 3.0 | 6.0 | 0.00 | 0.00 | 0.00 | 37 | 1004.8 |
| 20260504202717 | 66 | 227 | 3.0 | 8.0 | 0.00 | 0.00 | 0.00 | 38 | 1004.9 |
| 20260504202215 | 66 | 224 | 2.0 | 5.0 | 0.00 | 0.00 | 0.00 | 37 | 1004.8 |
| 20260504201712 | 66 | 262 | 2.0 | 5.0 | 0.00 | 0.00 | 0.00 | 42 | 1004.9 |
| 20260504201209 | 66 | 193 | 5.0 | 7.0 | 0.00 | 0.00 | 0.00 | 41 | 1005.1 |
| 20260504200706 | 66 | 223 | 3.0 | 6.0 | 0.00 | 0.00 | 0.00 | 38 | 1005.0 |
| 20260504200202 | 66 | 318 | 2.0 | 7.0 | 0.00 | 0.00 | 0.00 | 40 | 1005.1 |
| 20260504195659 | 66 | 259 | 3.0 | 6.0 | 0.00 | 0.00 | 0.00 | 39 | 1004.9 |
| 20260504195155 | 67 | 234 | 3.0 | 6.0 | 0.00 | 0.00 | 0.00 | 40 | 1005.3 |
| 20260504194652 | 66 | 241 | 5.0 | 11.0 | 0.00 | 0.00 | 0.00 | 38 | 1005.2 |
| 20260504194147 | 66 | 215 | 6.0 | 11.0 | 0.00 | 0.00 | 0.00 | 39 | 1005.2 |
| 20260504193644 | 66 | 236 | 4.0 | 11.0 | 0.00 | 0.00 | 0.00 | 38 | 1005.2 |
| 20260504193142 | 67 | 282 | 5.0 | 7.0 | 0.00 | 0.00 | 0.00 | 38 | 1005.2 |
| 20260504192640 | 67 | 224 | 4.0 | 8.0 | 0.00 | 0.00 | 0.00 | 39 | 1005.0 |
| 20260504192138 | 65 | 302 | 2.0 | 6.0 | 0.00 | 0.00 | 0.00 | 39 | 1005.3 |
| 20260504191636 | 66 | 339 | 7.0 | 8.0 | 0.00 | 0.00 | 0.00 | 41 | 1005.4 |
| 20260504191132 | 65 | 288 | 4.0 | 8.0 | 0.00 | 0.00 | 0.00 | 41 | 1005.2 |
| 20260504190628 | 65 | 272 | 3.0 | 9.0 | 0.00 | 0.00 | 0.00 | 39 | 1005.2 |
| 20260504190125 | 64 | 276 | 1.0 | 6.0 | 0.00 | 0.00 | 0.00 | 41 | 1005.3 |
| 20260504185621 | 64 | 224 | 6.0 | 10.0 | 0.00 | 0.00 | 0.00 | 43 | 1005.5 |
| 20260504185118 | 64 | 74 | 3.0 | 5.0 | 0.00 | 0.00 | 0.00 | 41 | 1005.2 |
| 20260504184614 | 63 | 223 | 3.0 | 14.0 | 0.00 | 0.00 | 0.00 | 42 | 1005.4 |
| 20260504184109 | 63 | 211 | 3.0 | 5.0 | 0.00 | 0.00 | 0.00 | 43 | 1005.3 |
| 20260504183607 | 63 | 237 | 5.0 | 6.0 | 0.00 | 0.00 | 0.00 | 45 | 1005.4 |
| 20260504183104 | 62 | 288 | 2.0 | 3.0 | 0.00 | 0.00 | 0.00 | 43 | 1005.5 |
| 20260504182601 | 62 | 205 | 7.0 | 8.0 | 0.00 | 0.00 | 0.00 | 44 | 1005.7 |
| 20260504182059 | 61 | 281 | 2.0 | 5.0 | 0.00 | 0.00 | 0.00 | 47 | 1005.7 |
| 20260504181555 | 61 | 312 | 1.0 | 2.0 | 0.00 | 0.00 | 0.00 | 47 | 1005.8 |
| 20260504181054 | 61 | 210 | 1.0 | 3.0 | 0.00 | 0.00 | 0.00 | 47 | 1005.6 |
| 20260504180553 | 62 | 296 | 1.0 | 1.0 | 0.00 | 0.00 | 0.00 | 46 | 1005.6 |
| 20260504180051 | 62 | 202 | 2.0 | 3.0 | 0.00 | 0.00 | 0.00 | 44 | 1005.7 |
| 20260504175548 | 62 | 241 | 0.0 | 2.0 | 0.00 | 0.00 | 0.00 | 43 | 1005.7 |
| 20260504175044 | 62 | 251 | 3.0 | 7.0 | 0.00 | 0.00 | 0.00 | 42 | 1005.7 |
| 20260504174543 | 62 | 14 | 2.0 | 3.0 | 0.00 | 0.00 | 0.00 | 44 | 1005.2 |
| 20260504174039 | 62 | 280 | 4.0 | 5.0 | 0.00 | 0.00 | 0.00 | 42 | 1005.4 |
| 20260504173536 | 63 | 281 | 4.0 | 10.0 | 0.00 | 0.00 | 0.00 | 43 | 1005.8 |
| 20260504173033 | 62 | 313 | 4.0 | 6.0 | 0.00 | 0.00 | 0.00 | 42 | 1005.4 |
| 20260504172529 | 62 | 169 | 9.0 | 11.0 | 0.00 | 0.00 | 0.00 | 42 | 1005.7 |
| 20260504172026 | 62 | 257 | 5.0 | 9.0 | 0.00 | 0.00 | 0.00 | 40 | 1005.6 |
| 20260504171523 | 62 | 252 | 1.0 | 5.0 | 0.00 | 0.00 | 0.00 | 41 | 1005.6 |
| 20260504171020 | 62 | 254 | 4.0 | 9.0 | 0.00 | 0.00 | 0.00 | 41 | 1005.6 |
| 20260504170515 | 62 | 223 | 9.0 | 14.0 | 0.00 | 0.00 | 0.00 | 40 | 1005.5 |
| 20260504160436 | 62 | 235 | 8.0 | 11.0 | 0.00 | 0.00 | 0.00 | 43 | 1005.0 |
| 20260504150900 | 59 | 180 | 2.0 | 7.0 | 0.00 | 0.00 | 0.00 | 48 | 1005.6 |
| 20260504150356 | 59 | 208 | 5.0 | 13.0 | 0.00 | 0.00 | 0.00 | 49 | 1005.8 |
| 20260504141326 | 55 | 227 | 6.0 | 7.0 | 0.00 | 0.00 | 0.00 | 53 | 1006.4 |
| 20260504140823 | 55 | 214 | 5.0 | 11.0 | 0.00 | 0.00 | 0.00 | 56 | 1006.6 |
| 20260504140319 | 55 | 187 | 9.0 | 13.0 | 0.00 | 0.00 | 0.00 | 56 | 1006.4 |
| 20260504130747 | 52 | 212 | 6.0 | 8.0 | 0.00 | 0.00 | 0.00 | 63 | 1007.0 |
| 20260504130244 | 51 | 192 | 2.0 | 5.0 | 0.00 | 0.00 | 0.00 | 66 | 1007.2 |
| 20260504120207 | 48 | 227 | 3.0 | 5.0 | 0.00 | 0.00 | 0.00 | 71 | 1007.8 |
| 20260504110635 | 47 | 204 | 1.0 | 3.0 | 0.00 | 0.00 | 0.00 | 68 | 1007.8 |
| 20260504110131 | 46 | 212 | 4.0 | 6.0 | 0.00 | 0.00 | 0.00 | 68 | 1007.7 |
| 20260504100557 | 45 | 279 | 0.0 | 5.0 | 0.00 | 0.00 | 0.00 | 66 | 1007.9 |
| 20260504081950 | 43 | 209 | 1.0 | 3.0 | 0.00 | 0.00 | 0.00 | 59 | 1007.8 |
| 20260504081448 | 42 | 245 | 0.0 | 2.0 | 0.00 | 0.00 | 0.00 | 59 | 1007.8 |
| 20260504080943 | 41 | 253 | 0.0 | 0.0 | 0.00 | 0.00 | 0.00 | 63 | 1007.8 |
| 20260504080440 | 41 | 316 | 0.0 | 2.0 | 0.00 | 0.00 | 0.00 | 64 | 1007.9 |
| 20260504070408 | 36 | 285 | 0.0 | 1.0 | 0.00 | 0.00 | 0.00 | 90 | 1007.7 |
| 20260504050253 | 35 | 265 | 1.0 | 1.0 | 0.00 | 0.00 | 0.00 | 90 | 1007.6 |
| 20260504045751 | 36 | 297 | 1.0 | 1.0 | 0.00 | 0.00 | 0.00 | 91 | 1007.7 |
| 20260504045250 | 36 | 297 | 0.0 | 1.0 | 0.00 | 0.00 | 0.00 | 91 | 1007.5 |
| 20260504044748 | 37 | 279 | 0.0 | 0.0 | 0.00 | 0.00 | 0.00 | 90 | 1007.6 |
| 20260504044246 | 37 | 279 | 0.0 | 0.0 | 0.00 | 0.00 | 0.00 | 90 | 1007.6 |
| 20260504043743 | 37 | 269 | 0.0 | 0.0 | 0.00 | 0.00 | 0.00 | 90 | 1007.5 |
| 20260504043239 | 37 | 270 | 0.0 | 0.0 | 0.00 | 0.00 | 0.00 | 90 | 1007.4 |
| 20260504042737 | 37 | 293 | 0.0 | 0.0 | 0.00 | 0.00 | 0.00 | 90 | 1007.5 |
| 20260504042233 | 37 | 293 | 0.0 | 0.0 | 0.00 | 0.00 | 0.00 | 90 | 1007.6 |
| 20260504041730 | 37 | 263 | 0.0 | 0.0 | 0.00 | 0.00 | 0.00 | 90 | 1007.5 |
| 20260504041226 | 37 | 259 | 2.0 | 2.0 | 0.00 | 0.00 | 0.00 | 91 | 1007.6 |
| 20260504040722 | 37 | 305 | 0.0 | 0.0 | 0.00 | 0.00 | 0.00 | 90 | 1007.5 |
| 20260504040220 | 37 | 305 | 1.0 | 1.0 | 0.00 | 0.00 | 0.00 | 89 | 1007.3 |
| 20260504035716 | 37 | 304 | 1.0 | 1.0 | 0.00 | 0.08 | 0.08 | 88 | 1007.5 |
| 20260504035213 | 37 | 304 | 1.0 | 1.0 | 0.00 | 0.08 | 0.08 | 88 | 1007.4 |
| 20260504034710 | 37 | 304 | 0.0 | 0.0 | 0.00 | 0.08 | 0.08 | 88 | 1007.5 |
| 20260504034207 | 37 | 304 | 0.0 | 0.0 | 0.00 | 0.08 | 0.08 | 88 | 1007.5 |
| 20260504033705 | 37 | 304 | 0.0 | 0.0 | 0.00 | 0.08 | 0.08 | 88 | 1007.5 |
| 20260504033202 | 37 | 304 | 0.0 | 0.0 | 0.00 | 0.08 | 0.08 | 88 | 1007.2 |
| 20260504032659 | 38 | 304 | 0.0 | 0.0 | 0.00 | 0.08 | 0.08 | 88 | 1007.3 |
| 20260504032156 | 38 | 304 | 0.0 | 1.0 | 0.00 | 0.08 | 0.08 | 87 | 1007.4 |
| 20260504031653 | 38 | 304 | 0.0 | 0.0 | 0.00 | 0.08 | 0.08 | 87 | 1007.3 |
| 20260504031149 | 38 | 305 | 0.0 | 0.0 | 0.00 | 0.08 | 0.08 | 85 | 1007.1 |
| 20260504030646 | 38 | 304 | 0.0 | 0.0 | 0.00 | 0.08 | 0.08 | 85 | 1007.3 |
| 20260504030143 | 38 | 304 | 0.0 | 0.0 | 0.00 | 0.08 | 0.08 | 84 | 1007.4 |
| 20260504025640 | 38 | 304 | 0.0 | 0.0 | 0.00 | 0.08 | 0.08 | 83 | 1007.3 |
| 20260504025136 | 38 | 304 | 0.0 | 0.0 | 0.00 | 0.08 | 0.08 | 83 | 1007.3 |
| 20260504024634 | 39 | 304 | 0.0 | 0.0 | 0.00 | 0.08 | 0.08 | 82 | 1007.3 |
| 20260504024130 | 39 | 304 | 0.0 | 0.0 | 0.00 | 0.08 | 0.08 | 82 | 1007.3 |
| 20260504023627 | 39 | 305 | 0.0 | 0.0 | 0.00 | 0.08 | 0.08 | 80 | 1007.3 |
| 20260504023123 | 39 | 305 | 0.0 | 0.0 | 0.00 | 0.08 | 0.08 | 79 | 1007.4 |
| 20260504022619 | 39 | 304 | 0.0 | 0.0 | 0.00 | 0.08 | 0.08 | 79 | 1007.3 |
| 20260504022115 | 40 | 304 | 0.0 | 0.0 | 0.00 | 0.08 | 0.08 | 78 | 1007.4 |
| 20260504021614 | 40 | 305 | 0.0 | 0.0 | 0.00 | 0.08 | 0.08 | 76 | 1007.2 |
| 20260504021110 | 40 | 305 | 0.0 | 0.0 | 0.00 | 0.08 | 0.08 | 76 | 1007.3 |
| 20260504020607 | 41 | 305 | 0.0 | 0.0 | 0.00 | 0.08 | 0.08 | 75 | 1007.3 |
| 20260504020103 | 41 | 305 | 0.0 | 0.0 | 0.00 | 0.08 | 0.08 | 69 | 1007.3 |
| 20260504015600 | 41 | 305 | 0.0 | 0.0 | 0.00 | 0.08 | 0.08 | 68 | 1007.2 |
| 20260504015055 | 41 | 305 | 0.0 | 0.0 | 0.00 | 0.08 | 0.08 | 74 | 1007.3 |
| 20260504014552 | 42 | 284 | 0.0 | 1.0 | 0.00 | 0.08 | 0.08 | 72 | 1007.4 |
| 20260504014049 | 42 | 256 | 0.0 | 0.0 | 0.00 | 0.08 | 0.08 | 69 | 1007.3 |
| 20260504013547 | 43 | 253 | 1.0 | 1.0 | 0.00 | 0.08 | 0.08 | 68 | 1007.3 |
| 20260504013043 | 42 | 325 | 0.0 | 0.0 | 0.00 | 0.08 | 0.08 | 63 | 1007.3 |
| 20260504012541 | 43 | 325 | 1.0 | 1.0 | 0.00 | 0.08 | 0.08 | 64 | 1007.3 |
| 20260504012039 | 43 | 325 | 1.0 | 2.0 | 0.00 | 0.08 | 0.08 | 60 | 1007.3 |
| 20260504011535 | 43 | 326 | 1.0 | 1.0 | 0.00 | 0.08 | 0.08 | 60 | 1007.3 |
| 20260504011031 | 43 | 359 | 1.0 | 2.0 | 0.00 | 0.08 | 0.08 | 62 | 1007.3 |
| 20260504010527 | 42 | 0 | 1.0 | 2.0 | 0.00 | 0.08 | 0.08 | 62 | 1007.0 |
| 20260504010023 | 42 | 332 | 1.0 | 1.0 | 0.00 | 0.08 | 0.08 | 64 | 1007.2 |
| 20260504005520 | 42 | 325 | 1.0 | 1.0 | 0.00 | 0.08 | 0.08 | 63 | 1007.0 |
| 20260504005018 | 42 | 325 | 1.0 | 2.0 | 0.00 | 0.08 | 0.08 | 62 | 1007.0 |
| 20260504004516 | 42 | 333 | 1.0 | 2.0 | 0.00 | 0.08 | 0.08 | 63 | 1006.8 |
| 20260504004012 | 43 | 320 | 1.0 | 1.0 | 0.00 | 0.08 | 0.08 | 64 | 1006.8 |
| 20260504003508 | 43 | 303 | 1.0 | 1.0 | 0.00 | 0.08 | 0.08 | 63 | 1006.7 |
| 20260504003005 | 43 | 302 | 1.0 | 1.0 | 0.00 | 0.08 | 0.08 | 59 | 1006.7 |
| 20260504002502 | 43 | 303 | 1.0 | 1.0 | 0.00 | 0.08 | 0.08 | 60 | 1006.8 |
| 20260504001959 | 43 | 302 | 0.0 | 1.0 | 0.00 | 0.08 | 0.08 | 62 | 1006.6 |
| 20260504001457 | 43 | 302 | 1.0 | 1.0 | 0.00 | 0.08 | 0.08 | 61 | 1006.7 |
| 20260504000953 | 43 | 300 | 0.0 | 1.0 | 0.00 | 0.08 | 0.08 | 63 | 1006.5 |
| 20260504000450 | 43 | 301 | 1.0 | 1.0 | 0.00 | 0.08 | 0.08 | 61 | 1006.4 |
| 20260503235948 | 44 | 300 | 0.0 | 1.0 | 0.00 | 0.08 | 0.08 | 63 | 1006.4 |
| 20260503235445 | 44 | 299 | 0.0 | 1.0 | 0.00 | 0.08 | 0.08 | 63 | 1006.1 |
| 20260503234942 | 44 | 308 | 1.0 | 1.0 | 0.00 | 0.08 | 0.08 | 61 | 1006.3 |
| 20260503234440 | 45 | 318 | 1.0 | 2.0 | 0.00 | 0.08 | 0.08 | 57 | 1006.5 |
| 20260503233938 | 45 | 312 | 1.0 | 2.0 | 0.00 | 0.08 | 0.08 | 55 | 1006.4 |
| 20260503233434 | 45 | 328 | 1.0 | 2.0 | 0.00 | 0.08 | 0.08 | 56 | 1006.0 |
| 20260503232931 | 46 | 318 | 1.0 | 3.0 | 0.00 | 0.08 | 0.08 | 53 | 1006.0 |
| 20260503232428 | 46 | 323 | 1.0 | 3.0 | 0.00 | 0.08 | 0.08 | 53 | 1006.1 |
| 20260503231926 | 46 | 285 | 2.0 | 2.0 | 0.00 | 0.08 | 0.08 | 51 | 1006.1 |
| 20260503231423 | 47 | 332 | 2.0 | 3.0 | 0.00 | 0.08 | 0.08 | 49 | 1006.0 |
| 20260503230919 | 47 | 259 | 1.0 | 5.0 | 0.00 | 0.08 | 0.08 | 51 | 1006.1 |
| 20260503230416 | 48 | 326 | 2.0 | 3.0 | 0.00 | 0.08 | 0.08 | 50 | 1006.0 |
| 20260503225914 | 48 | 351 | 2.0 | 3.0 | 0.00 | 0.08 | 0.08 | 51 | 1005.9 |
| 20260503225409 | 47 | 315 | 1.0 | 5.0 | 0.00 | 0.08 | 0.08 | 52 | 1005.7 |
| 20260503224906 | 47 | 300 | 0.0 | 2.0 | 0.00 | 0.08 | 0.08 | 50 | 1005.8 |
| 20260503224403 | 48 | 253 | 3.0 | 5.0 | 0.00 | 0.08 | 0.08 | 49 | 1005.7 |
| 20260503223900 | 48 | 299 | 2.0 | 5.0 | 0.00 | 0.08 | 0.08 | 50 | 1005.7 |
| 20260503223358 | 49 | 289 | 3.0 | 3.0 | 0.00 | 0.08 | 0.08 | 49 | 1005.6 |
| 20260503222853 | 49 | 261 | 1.0 | 5.0 | 0.00 | 0.08 | 0.08 | 50 | 1005.6 |
| 20260503222352 | 49 | 18 | 4.0 | 5.0 | 0.00 | 0.08 | 0.08 | 49 | 1005.7 |
| 20260503221850 | 49 | 152 | 3.0 | 6.0 | 0.00 | 0.08 | 0.08 | 51 | 1005.5 |
| 20260503221348 | 49 | 295 | 2.0 | 5.0 | 0.00 | 0.08 | 0.08 | 47 | 1005.5 |
| 20260503220844 | 50 | 261 | 3.0 | 6.0 | 0.00 | 0.08 | 0.08 | 46 | 1005.4 |
| 20260503220341 | 50 | 181 | 4.0 | 8.0 | 0.00 | 0.08 | 0.08 | 48 | 1005.3 |
| 20260503215838 | 51 | 334 | 2.0 | 2.0 | 0.00 | 0.08 | 0.08 | 48 | 1005.3 |
| 20260503215335 | 50 | 308 | 2.0 | 3.0 | 0.00 | 0.08 | 0.08 | 50 | 1004.9 |
| 20260503214833 | 50 | 318 | 1.0 | 5.0 | 0.00 | 0.08 | 0.08 | 49 | 1005.0 |
| 20260503214330 | 50 | 308 | 2.0 | 7.0 | 0.00 | 0.08 | 0.08 | 52 | 1004.8 |
| 20260503213827 | 49 | 266 | 2.0 | 2.0 | 0.00 | 0.08 | 0.08 | 48 | 1004.9 |
| 20260503213325 | 50 | 290 | 2.0 | 5.0 | 0.00 | 0.08 | 0.08 | 52 | 1004.8 |
| 20260503212821 | 50 | 296 | 1.0 | 3.0 | 0.00 | 0.08 | 0.08 | 48 | 1005.1 |
| 20260503212319 | 51 | 314 | 2.0 | 5.0 | 0.00 | 0.08 | 0.08 | 48 | 1004.8 |
| 20260503211816 | 50 | 331 | 1.0 | 3.0 | 0.00 | 0.08 | 0.08 | 53 | 1004.6 |
| 20260503211313 | 49 | 295 | 1.0 | 3.0 | 0.00 | 0.08 | 0.08 | 54 | 1004.6 |
| 20260503210813 | 49 | 353 | 1.0 | 2.0 | 0.00 | 0.08 | 0.08 | 52 | 1004.6 |
| 20260503210311 | 49 | 279 | 2.0 | 8.0 | 0.00 | 0.08 | 0.08 | 53 | 1004.5 |
| 20260503205806 | 49 | 255 | 2.0 | 2.0 | 0.00 | 0.08 | 0.08 | 53 | 1004.4 |